{"data":{"norad_id":66231,"intl_designator":"2025-244AB","name":"STARLINK-35735","alt_names":[],"object_type":"PAYLOAD","status":"ACTIVE","operator":null,"country":"US","launch_date":"2025-10-28","launch_site_code":"AFWTR","launch_vehicle":null,"mission":null,"orbit_class":"UNKNOWN","rcs_meters":null,"size_class":null,"mass_kg":null,"dimensions":null,"purposes":["comms"],"wikipedia_slug":null,"has_3d_model":false,"image_url":null,"decayed_at":null,"tle_current":{"epoch":"2026-09-20T20:21:44.894592Z","epoch_age_seconds":66605,"freshness":"FRESH","line1":"1 66231U 25244AB  26263.84843628  .00017755  00000+0  53488-3 0  9992","line2":"2 66231  53.1595  40.2626 0000823  84.5055 275.6041 15.34428327 51581","mean_motion":15.34428327,"eccentricity":8.23e-5,"inclination_deg":53.1595,"raan_deg":40.2626,"arg_perigee_deg":84.5055,"mean_anomaly_deg":275.6041,"bstar":0.00053488,"rev_number":5158,"period_min":93.846025562848,"perigee_km":462.05605346599,"apogee_km":463.18204191144,"semimajor_km":6840.7560476887,"source":"CELESTRAK","updated_at":"2026-09-21T09:00:35.844878Z"}}}